Location: Sark
(49.4440°N, 2.3620°W)
Time: 14:56:09
(UTC+00:00)

OTV 5 (USA 277) - Visible Passes

Search period start: 21 February 2018 00:00
Search period end: 03 March 2018 00:00
Orbit: 404 x 417 km, 43.0° (Epoch: 07 September)

Date Brightness Start Highest point End Pass type
(mag) Time Alt. Az. Time Alt. Az. Time Alt. Az.
21 Feb ? 06:32:17 10° SSW 06:34:28 16° SSE 06:36:38 10° ESE visible
22 Feb ? 05:41:57 10° S 05:43:35 13° SSE 05:45:14 10° SE visible
23 Feb ? 06:26:39 10° SW 06:29:19 23° S 06:31:59 10° ESE visible
24 Feb ? 05:36:28 13° SSW 05:38:24 20° SSE 05:40:53 10° ESE visible
25 Feb ? 04:47:48 16° SSE 04:47:48 16° SSE 04:49:41 10° ESE visible
25 Feb ? 06:21:25 10° WSW 06:24:13 26° S 06:27:03 10° ESE visible
26 Feb ? 05:31:51 18° SSW 05:33:17 25° S 05:36:04 10° ESE visible
27 Feb ? 04:43:07 21° SSE 04:43:07 21° SSE 04:45:01 10° ESE visible
27 Feb ? 06:16:23 10° WSW 06:19:08 25° S 06:21:54 10° SE visible
28 Feb ? 05:27:08 22° SW 05:28:12 26° S 05:31:01 10° SE visible
01 Mar ? 04:38:23 21° SE 04:38:23 21° SE 04:40:05 10° ESE visible
01 Mar ? 06:11:35 10° WSW 06:14:02 19° SSW 06:16:28 10° SSE visible
02 Mar ? 05:22:25 21° SSW 05:23:07 22° S 05:25:46 10° SE visible
